FW5374 Weather Reports


Display with metric or nautical units.
time (UTC)temp
F
wind
direction
speed
MPH
gust
MPH
rain 1hr
in
rain 24hr
in
rain mn
in
humidity
%
barometer
mb
20260505051906 61 183 2.0 3.0 0.00 0.00 0.00 66 1006.3
20260505051406 62 151 2.0 3.0 0.00 0.00 0.00 64 1006.3
20260505050406 62 159 4.0 6.0 0.00 0.00 0.00 63 1006.3
20260505041406 66 213 5.0 7.0 0.00 0.00 0.00 57 1005.4
20260505040906 66 146 2.0 3.0 0.00 0.00 0.00 56 1005.3
20260505040406 67 136 2.0 5.0 0.00 0.00 0.00 56 1005.3
20260505035905 67 185 3.0 5.0 0.00 0.00 0.00 55 1005.3
20260505035406 68 244 2.0 3.0 0.00 0.00 0.00 54 1005.2
20260505034905 68 153 1.0 3.0 0.00 0.00 0.00 54 1005.1
20260505034405 69 164 2.0 8.0 0.00 0.00 0.00 53 1004.9
20260505033906 69 211 5.0 7.0 0.00 0.00 0.00 52 1004.7
20260505033406 70 141 2.0 8.0 0.00 0.00 0.00 52 1004.6
20260505032906 70 132 7.0 9.0 0.00 0.00 0.00 50 1004.6
20260505032405 70 192 5.0 8.0 0.00 0.00 0.00 48 1004.4
20260505031905 71 170 6.0 9.0 0.00 0.00 0.00 47 1004.4
20260505031405 72 180 5.0 8.0 0.00 0.00 0.00 44 1004.3
20260505030905 73 204 2.0 3.0 0.00 0.00 0.00 46 1004.3
20260505030405 74 182 2.0 3.0 0.00 0.00 0.00 45 1004.2
20260505025905 74 107 2.0 3.0 0.00 0.00 0.00 46 1004.2
20260505025405 75 102 2.0 3.0 0.00 0.00 0.00 43 1004.1
20260505024906 75 140 1.0 3.0 0.00 0.00 0.00 44 1004.1
20260505024405 75 127 2.0 5.0 0.00 0.00 0.00 43 1004.0
20260505023906 76 254 4.0 8.0 0.00 0.00 0.00 41 1004.0
20260505023405 76 260 5.0 9.0 0.00 0.00 0.00 41 1004.0
20260505022906 76 249 7.0 10.0 0.00 0.00 0.00 41 1004.0
20260505022405 77 272 7.0 10.0 0.00 0.00 0.00 42 1003.9
20260505021905 78 275 3.0 9.0 0.00 0.00 0.00 41 1003.9
20260505021406 79 264 5.0 7.0 0.00 0.00 0.00 41 1003.8
20260505020905 80 309 2.0 5.0 0.00 0.00 0.00 43 1003.8
20260505015905 81 276 3.0 7.0 0.00 0.00 0.00 40 1003.7
20260505015405 82 285 5.0 7.0 0.00 0.00 0.00 39 1003.7
20260505014406 83 274 5.0 8.0 0.00 0.00 0.00 36 1003.6
20260505013406 83 272 5.0 12.0 0.00 0.00 0.00 37 1003.6
20260505012905 83 293 3.0 10.0 0.00 0.00 0.00 35 1003.7
20260505012406 83 321 7.0 12.0 0.00 0.00 0.00 35 1003.7
20260505011905 83 268 6.0 9.0 0.00 0.00 0.00 35 1003.8
20260505011406 84 274 7.0 10.0 0.00 0.00 0.00 34 1003.8
20260505010905 84 279 6.0 10.0 0.00 0.00 0.00 36 1003.8
20260505010405 84 293 3.0 9.0 0.00 0.00 0.00 35 1003.8
20260505005905 84 317 6.0 12.0 0.00 0.00 0.00 34 1003.8
20260505004905 85 298 7.0 13.0 0.00 0.00 0.00 34 1003.9
20260505004405 85 283 3.0 9.0 0.00 0.00 0.00 33 1003.9
20260505003905 85 281 6.0 10.0 0.00 0.00 0.00 33 1004.0
20260505003405 85 269 6.0 12.0 0.00 0.00 0.00 32 1004.0
20260505002905 85 309 7.0 12.0 0.00 0.00 0.00 32 1003.9
20260505002405 85 257 2.0 5.0 0.00 0.00 0.00 33 1003.9
20260505001906 85 302 5.0 10.0 0.00 0.00 0.00 31 1004.0
20260505001405 85 284 10.0 15.0 0.00 0.00 0.00 32 1004.0
20260505000906 85 299 6.0 12.0 0.00 0.00 0.00 32 1004.1
20260505000406 85 336 3.0 18.0 0.00 0.00 0.00 32 1004.1
20260504235905 85 302 6.0 13.0 0.00 0.00 0.00 32 1004.1
20260504235405 84 315 7.0 14.0 0.00 0.00 0.00 31 1004.1
20260504234905 84 343 5.0 12.0 0.00 0.00 0.00 32 1004.1
20260504234406 85 254 9.0 15.0 0.00 0.00 0.00 32 1004.1
20260504233405 85 287 10.0 20.0 0.00 0.00 0.00 32 1004.1
20260504232906 85 293 6.0 13.0 0.00 0.00 0.00 34 1004.2
20260504232405 85 319 6.0 14.0 0.00 0.00 0.00 31 1004.1
20260504231906 85 289 5.0 14.0 0.00 0.00 0.00 32 1004.1
20260504231406 85 307 10.0 15.0 0.00 0.00 0.00 31 1004.2
20260504230905 85 341 7.0 14.0 0.00 0.00 0.00 32 1004.2
20260504230405 85 343 5.0 12.0 0.00 0.00 0.00 33 1004.2
20260504225405 85 300 9.0 15.0 0.00 0.00 0.00 30 1004.2
20260504224906 85 300 7.0 14.0 0.00 0.00 0.00 31 1004.2
20260504224406 85 259 9.0 13.0 0.00 0.00 0.00 31 1004.2
20260504223906 85 238 7.0 15.0 0.00 0.00 0.00 32 1004.2
20260504223406 85 266 9.0 12.0 0.00 0.00 0.00 30 1004.4
20260504222906 85 210 6.0 8.0 0.00 0.00 0.00 33 1004.5
20260504222406 85 231 4.0 8.0 0.00 0.00 0.00 32 1004.6
20260504221906 85 195 6.0 9.0 0.00 0.00 0.00 33 1004.5
20260504221406 85 226 5.0 8.0 0.00 0.00 0.00 32 1004.7
20260504220906 85 224 5.0 9.0 0.00 0.00 0.00 33 1004.8
20260504220407 85 281 5.0 9.0 0.00 0.00 0.00 33 1004.7
20260504215906 85 288 6.0 12.0 0.00 0.00 0.00 34 1004.8
20260504215406 84 239 6.0 10.0 0.00 0.00 0.00 33 1004.9
20260504214907 85 269 9.0 13.0 0.00 0.00 0.00 32 1005.1
20260504214406 84 290 6.0 12.0 0.00 0.00 0.00 32 1005.0
20260504213906 84 338 3.0 8.0 0.00 0.00 0.00 34 1005.1
20260504212906 83 183 6.0 10.0 0.00 0.00 0.00 37 1005.2
20260504212407 83 172 6.0 10.0 0.00 0.00 0.00 37 1005.2
20260504211907 84 241 7.0 12.0 0.00 0.00 0.00 37 1005.3
20260504210907 83 198 6.0 12.0 0.00 0.00 0.00 37 1005.4
20260504210407 84 182 6.0 12.0 0.00 0.00 0.00 37 1005.4
20260504204907 84 162 4.0 9.0 0.00 0.00 0.00 36 1005.6
20260504204406 84 115 6.0 9.0 0.00 0.00 0.00 36 1005.6
20260504203906 83 100 2.0 7.0 0.00 0.00 0.00 38 1005.7
20260504203406 82 54 3.0 7.0 0.00 0.00 0.00 37 1005.8
20260504202906 83 53 2.0 3.0 0.00 0.00 0.00 37 1005.8
20260504200906 82 134 2.0 3.0 0.00 0.00 0.00 37 1006.1
20260504200406 81 182 1.0 5.0 0.00 0.00 0.00 37 1006.2
20260504195906 81 149 3.0 5.0 0.00 0.00 0.00 37 1006.1
20260504195407 82 172 5.0 7.0 0.00 0.00 0.00 36 1006.2
20260504194906 81 212 3.0 5.0 0.00 0.00 0.00 38 1006.3
20260504194406 82 167 3.0 7.0 0.00 0.00 0.00 36 1006.3
20260504193905 82 57 2.0 6.0 0.00 0.00 0.00 36 1006.3
20260504193405 82 155 3.0 6.0 0.00 0.00 0.00 36 1006.4
20260504192906 81 93 2.0 3.0 0.00 0.00 0.00 36 1006.5
20260504192406 80 84 1.0 3.0 0.00 0.00 0.00 37 1006.5
20260504191906 80 205 2.0 5.0 0.00 0.00 0.00 37 1006.5
20260504190906 79 282 3.0 5.0 0.00 0.00 0.00 38 1006.6
20260504190406 79 255 1.0 5.0 0.00 0.00 0.00 39 1006.7
20260504185906 78 105 1.0 3.0 0.00 0.00 0.00 39 1006.7
20260504185405 78 72 1.0 3.0 0.00 0.00 0.00 39 1006.8
20260504184906 77 46 1.0 3.0 0.00 0.00 0.00 39 1006.9
20260504184406 76 40 2.0 3.0 0.00 0.00 0.00 40 1006.9
20260504183905 76 130 1.0 3.0 0.00 0.00 0.00 40 1006.9
20260504183406 76 71 2.0 3.0 0.00 0.00 0.00 40 1007.0
20260504182906 77 48 2.0 6.0 0.00 0.00 0.00 42 1007.0
20260504182405 76 77 2.0 3.0 0.00 0.00 0.00 41 1007.1
20260504181906 76 113 2.0 3.0 0.00 0.00 0.00 41 1007.2
20260504181405 75 357 1.0 3.0 0.00 0.00 0.00 40 1007.2
20260504180405 75 156 1.0 3.0 0.00 0.00 0.00 41 1007.2
20260504175906 75 329 3.0 5.0 0.00 0.00 0.00 40 1007.3
20260504175406 75 173 2.0 5.0 0.00 0.00 0.00 42 1007.4
20260504173905 74 46 1.0 3.0 0.00 0.00 0.00 46 1007.4
20260504173406 73 33 2.0 3.0 0.00 0.00 0.00 46 1007.5
20260504172406 73 39 1.0 3.0 0.00 0.00 0.00 47 1007.5
20260504171905 72 30 2.0 3.0 0.00 0.00 0.00 48 1007.6
20260504171405 72 123 1.0 3.0 0.00 0.00 0.00 49 1007.6
20260504170905 71 131 2.0 3.0 0.00 0.00 0.00 50 1007.6
20260504160406 66 358 2.0 5.0 0.00 0.00 0.00 53 1008.1
20260504150906 58 80 2.0 3.0 0.00 0.00 0.00 66 1008.7
20260504150405 58 108 3.0 6.0 0.00 0.00 0.00 67 1008.8
20260504140905 51 144 0.0 1.0 0.00 0.00 0.00 79 1008.8
20260504130407 45 192 4.0 6.0 0.00 0.00 0.00 86 1008.4
20260504110406 46 144 0.0 0.0 0.00 0.00 0.00 83 1008.5
20260504081905 49 186 0.0 0.0 0.00 0.00 0.00 80 1008.0
20260504081406 50 186 0.0 0.0 0.00 0.00 0.00 80 1008.0
20260504080906 50 186 0.0 1.0 0.00 0.00 0.00 79 1008.0
20260504080406 50 186 2.0 3.0 0.00 0.00 0.00 79 1007.9
20260504070406 52 162 2.0 3.0 0.00 0.00 0.00 76 1008.0